GFSNGP_con_lsi_000.txt.gz
Lid_Strength_Index
12 11 10 10 11 12 12 12 14 12 13 10 9 9 8 9 10 10 9 8 8 7 5 5 4 4 3 4 3 2 2 3 3 4 4 3 3 3 3 3 4 4 4 5
13 11 11 11 10 11 11 11 12 11 12 8 8 7 7 9 10 10 9 8 8 7 6 5 4 4 3 4 3 2 3 2 3 4 4 4 4 4 4 4 4 3 4 3
15 12 12 14 11 11 11 11 10 13 10 8 9 8 8 7 9 9 9 8 8 7 6 4 4 3 4 4 3 3 3 2 3 4 4 4 4 5 5 5 5 4 4 4
17 15 19 12 9 9 10 10 9 9 9 8 8 7 6 6 8 9 8 8 7 7 6 5 3 4 4 5 3 3 2 2 2 4 4 4 4 5 6 6 5 5 5 5
17 18 14 13 11 11 11 11 8 9 9 8 7 7 7 5 6 7 7 7 7 6 6 5 4 3 4 5 3 2 3 2 2 4 4 4 5 5 6 6 6 6 6 6
17 19 20 13 9 8 8 14 8 8 9 8 8 11 8 6 5 6 6 7 7 6 6 6 5 4 4 5 3 3 2 2 2 3 4 4 4 5 5 6 6 6 6 6
17 18 14 10 8 7 15 13 8 7 7 8 8 7 6 5 5 5 5 6 6 6 6 6 5 5 4 4 4 2 1 1 1 3 4 4 4 5 5 6 6 6 6 6
16 17 18 8 9 12 9 8 7 7 7 7 6 6 6 6 5 5 6 6 6 7 6 6 5 5 5 4 3 2 1 1 1 2 3 4 5 5 4 5 5 6 6 7
13 13 9 7 8 7 7 7 7 7 7 6 6 6 6 6 5 5 6 6 6 6 6 6 5 5 5 4 3 3 2 2 2 2 2 3 4 5 4 5 5 5 5 6
11 10 9 7 7 7 7 6 6 6 5 6 6 6 5 5 5 5 5 6 6 6 6 6 5 5 4 4 3 3 2 2 2 2 2 3 3 4 4 4 4 4 4 5
11 10 9 8 6 7 6 6 6 5 5 5 5 5 5 5 5 5 5 5 6 6 6 6 5 5 4 4 3 3 2 2 2 2 2 2 2 3 3 3 4 4 3 3
11 9 9 8 6 6 6 6 5 5 5 5 5 5 5 5 5 5 5 5 5 6 6 6 6 5 5 4 4 4 4 3 2 2 2 2 2 3 8 8 8 9 10 5
9 7 8 7 5 5 6 5 5 5 5 5 4 4 4 5 5 5 4 4 5 5 6 6 6 6 5 4 4 4 4 4 3 4 3 2 2 2 3 4 9 10 10 10
6 6 8 6 7 5 5 4 4 4 4 4 4 4 4 5 4 4 4 4 4 5 5 5 6 6 5 4 4 4 4 7 3 3 3 3 2 2 2 2 3 2 9 10
6 6 6 5 5 5 5 5 5 6 5 5 4 4 4 5 4 4 3 4 4 4 5 5 5 6 5 5 5 4 4 4 4 4 3 3 2 2 2 2 2 2 6 10
6 6 6 6 6 6 6 6 6 6 5 5 5 5 4 4 4 4 4 3 4 5 4 5 5 5 5 5 5 5 4 7 6 4 4 3 3 2 2 2 2 2 4 6
7 8 7 7 7 8 7 6 5 5 5 5 4 4 4 4 4 4 3 3 3 3 3 4 4 4 4 4 5 5 5 6 8 5 5 4 3 3 3 2 4 6 7 10
6 7 7 7 7 7 7 6 5 4 5 4 4 4 4 4 5 4 4 4 4 3 4 4 4 4 4 5 5 5 6 6 6 5 4 4 4 4 5 6 7 8 9 10
7 7 6 6 6 6 7 6 5 5 5 4 4 4 5 5 6 5 6 6 6 5 6 5 10 6 4 6 5 4 5 5 5 5 5 8 6 6 6 7 8 8 8 9
7 7 6 7 7 7 7 7 6 6 5 4 4 4 6 6 6 6 7 9 10 9 7 5 4 5 5 7 7 4 4 5 5 5 5 5 6 7 7 9 8 8 9 9
6 6 6 6 7 6 6 5 5 5 4 3 4 5 6 7 7 7 7 8 9 9 8 9 5 4 5 6 4 4 4 5 5 5 6 7 7 7 8 8 9 10 10 11
6 6 5 6 6 6 6 6 6 5 4 4 5 6 6 7 8 9 9 9 8 14 7 7 8 12 7 9 3 4 4 4 5 6 6 7 8 9 9 10 10 10 11 11
7 7 7 6 7 6 7 7 6 6 4 4 5 5 6 6 6 6 7 10 10 12 8 7 12 13 12 4 4 5 5 6 7 7 8 8 9 9 10 10 11 11 11 11
6 6 7 7 8 8 8 8 8 7 6 4 5 5 5 6 7 9 10 13 13 11 11 11 13 14 11 6 7 7 8 8 9 9 9 11 9 10 10 10 10 10 11 11
7 8 8 8 9 9 9 9 8 9 8 8 8 8 7 7 5 6 7 9 12 10 10 14 13 12 8 8 8 8 8 8 8 9 9 10 10 10 10 10 10 10 9 9
7 8 8 9 9 9 9 9 9 9 9 9 9 9 9 8 8 8 8 9 8 10 8 8 8 8 8 8 8 8 9 9 9 9 9 9 9 9 10 9 9 9 9 9
7 8 8 8 8 9 9 9 9 9 9 9 10 9 9 8 9 9 10 8 8 8 9 9 8 9 8 8 9 8 8 9 10 9 9 9 9 9 9 9 9 9 9 9

GFSNGP_con_lsi_003.txt.gz
Lid_Strength_Index
8 8 9 9 9 9 10 9 11 10 10 8 7 6 6 5 6 6 5 4 4 3 3 2 2 2 1 1 1 0 1 1 1 0 0 -0 0 1 0 -0 -0 -0 1 1
10 8 8 9 8 8 9 9 9 8 9 6 5 5 6 6 6 6 6 5 4 4 3 2 2 2 2 1 1 1 1 1 1 0 0 0 0 0 0 0 0 0 0 1
12 9 9 12 9 9 9 8 8 10 8 6 7 7 6 6 6 6 6 5 5 4 3 2 2 1 2 1 1 1 1 1 1 0 1 0 0 0 0 0 -0 0 -0 -0
13 11 17 10 7 7 8 8 7 7 6 6 6 5 5 4 5 4 5 5 4 4 3 2 1 1 1 1 1 1 1 1 1 1 1 0 0 0 0 0 0 0 0 -0
16 15 11 11 9 8 9 9 7 7 6 6 5 5 5 4 4 4 4 3 3 3 3 2 2 1 1 1 1 1 1 1 1 1 1 1 1 0 0 0 0 0 -0 0
14 16 16 9 8 7 6 11 7 6 6 6 6 8 6 4 3 3 3 3 3 3 3 2 2 1 1 2 1 2 1 1 0 1 1 1 0 0 1 0 0 1 1 0
13 15 12 8 7 6 12 10 6 6 6 6 7 6 4 3 3 3 3 3 3 3 3 3 1 1 2 2 2 1 1 0 0 0 0 0 0 0 1 1 1 1 2 1
13 14 15 7 7 10 7 6 6 6 5 6 5 4 4 3 3 3 3 3 3 4 3 2 2 2 2 2 1 1 1 1 1 0 1 0 0 0 0 1 1 1 1 2
10 10 7 6 6 5 5 5 5 5 5 5 5 4 4 4 3 3 3 3 3 3 3 3 2 2 2 2 1 1 1 1 1 1 0 1 1 1 1 1 1 1 2 2
9 7 7 6 5 5 4 5 5 4 4 4 5 4 4 4 3 3 3 3 3 3 4 3 3 2 2 1 1 1 1 1 1 1 1 0 1 0 1 1 1 2 2 2
8 7 7 6 5 5 4 4 4 4 4 4 4 4 4 4 3 3 3 2 3 3 3 3 3 3 2 1 1 1 1 1 1 1 1 1 1 1 1 0 1 1 1 1
10 6 6 6 5 4 5 5 4 4 4 4 3 4 3 3 3 3 3 2 2 3 3 3 3 3 2 2 1 1 2 2 1 1 1 1 1 1 6 7 8 8 8 3
8 6 6 5 4 4 4 4 4 4 3 4 3 3 3 3 3 3 2 2 2 3 3 3 3 3 2 2 1 1 2 1 1 2 1 1 1 1 2 3 9 10 10 9
5 5 7 5 5 4 4 4 4 3 3 3 3 3 3 3 3 3 3 2 2 2 2 3 3 3 2 2 2 1 1 6 1 1 1 1 1 1 1 1 2 1 10 9
5 5 5 4 4 4 3 4 4 4 4 4 3 3 3 3 3 3 2 2 2 2 2 3 3 3 2 3 3 2 2 2 2 1 1 1 1 1 1 1 1 1 3 7
5 5 5 5 5 4 4 4 4 4 4 4 3 3 3 3 3 2 2 2 3 3 2 2 3 3 3 2 2 2 2 6 5 2 1 1 1 1 1 1 1 1 1 2
7 7 6 6 5 5 5 4 4 4 4 4 3 3 3 3 3 3 2 2 2 2 2 2 2 2 3 2 2 2 2 2 7 2 2 2 1 1 1 1 1 2 1 4
5 5 4 4 5 5 5 4 4 4 4 3 3 3 3 4 4 3 3 2 2 2 2 2 1 1 2 2 1 2 2 2 3 2 2 2 2 1 1 2 2 3 4 7
5 5 4 4 4 4 5 4 4 4 3 3 3 4 3 3 3 3 3 3 3 3 3 2 8 5 3 3 4 2 2 2 3 3 2 6 2 2 2 3 4 5 5 5
6 6 6 6 6 5 4 3 3 3 3 3 3 3 4 4 4 4 4 5 5 4 3 2 2 2 2 5 8 3 2 3 2 3 3 3 4 4 5 7 5 5 4 5
5 5 6 6 7 6 4 3 3 4 3 3 3 3 3 3 3 3 3 4 5 6 5 6 2 3 3 4 4 2 2 2 3 3 4 4 5 4 5 5 5 6 7 9
6 6 6 6 5 5 4 3 3 3 3 3 3 3 3 4 4 5 5 4 4 14 4 3 4 10 5 10 2 3 3 3 4 4 4 4 5 6 6 8 9 9 11 11
6 6 6 5 5 5 4 4 3 3 3 3 3 3 3 3 2 3 4 5 4 8 3 4 12 14 13 2 2 2 3 3 3 4 5 6 6 7 8 9 10 11 10 10
6 5 6 5 5 5 6 5 4 4 3 2 2 2 2 3 4 5 6 11 14 9 5 6 10 13 9 2 2 3 3 4 5 5 6 9 7 7 9 10 10 10 10 9
5 5 5 5 5 5 5 5 5 5 4 4 3 3 4 3 3 4 5 6 12 7 6 14 14 13 5 4 5 4 5 5 6 6 7 7 7 8 8 9 9 9 9 9
5 6 6 5 5 5 5 4 5 5 5 5 5 4 4 4 5 4 5 7 5 8 5 5 6 6 5 5 6 6 7 8 7 7 7 7 8 9 9 9 9 8 8 8
4 6 4 5 5 5 5 6 5 5 6 5 5 6 4 4 6 5 8 5 5 5 7 7 8 9 7 7 8 8 8 8 9 9 8 7 8 8 8 8 8 8 8 8

GFSNGP_con_lsi_006.txt.gz
Lid_Strength_Index
8 7 7 8 8 8 9 8 10 9 8 7 5 5 5 5 4 4 4 3 3 3 2 2 1 1 1 1 0 0 0 1 0 -0 -1 -0 -0 -0 -1 -1 -0 0 -0 -0
9 8 8 9 8 8 8 8 8 8 8 5 4 4 5 5 5 5 4 3 3 3 2 2 2 1 1 1 1 0 0 1 0 -0 -0 -0 -0 -0 -0 -0 -1 0 -0 -0
11 8 8 11 8 8 7 7 7 9 7 5 5 5 5 5 4 4 4 3 3 3 2 2 1 1 1 1 0 0 1 0 0 0 0 0 -0 -0 -0 -0 -1 -1 -1 -1
10 9 14 8 6 6 7 6 6 6 5 5 4 4 4 3 4 4 3 3 3 2 2 1 1 1 1 1 1 1 1 1 0 0 0 0 -0 0 -0 -0 -0 -0 -0 -0
12 12 9 8 7 7 8 8 5 6 5 4 4 4 4 3 3 3 3 2 2 2 1 1 1 1 1 1 1 1 1 1 0 0 0 0 0 0 -0 0 0 -0 -0 -0
10 14 15 8 6 5 5 10 5 5 5 5 4 7 5 3 3 3 2 2 2 1 1 1 1 1 1 1 1 1 1 1 0 -0 0 0 -0 -0 -0 -0 -0 -0 -0 -1
12 13 10 7 5 5 11 9 4 4 4 4 5 5 3 2 3 2 2 2 1 1 2 2 1 1 1 1 1 1 0 0 0 -0 -0 -0 -0 -0 -0 -0 -0 -0 -0 -1
10 12 13 5 6 8 5 5 4 4 4 4 4 3 3 3 3 2 2 2 2 2 2 1 1 1 1 2 1 0 0 0 0 -0 0 0 -0 0 -0 -0 0 0 0 0
9 9 6 5 5 4 3 4 4 4 4 3 4 4 3 3 3 2 2 2 2 2 2 1 1 1 2 1 0 0 0 0 0 0 -0 -0 0 0 1 0 1 1 1 1
8 6 6 5 4 4 3 4 3 3 3 3 4 3 3 3 3 3 2 2 2 2 2 2 1 1 1 1 0 1 1 1 0 1 1 -0 0 0 1 1 1 1 1 1
7 6 5 4 4 3 4 3 3 3 3 3 3 3 3 3 3 2 2 2 2 2 2 2 1 1 1 1 0 1 1 1 1 1 1 0 0 0 0 -0 1 1 0 0
9 5 5 5 3 3 4 4 3 3 3 3 3 3 3 3 2 2 2 2 2 2 2 2 1 1 1 0 1 1 1 1 1 1 1 1 1 1 6 6 7 7 7 3
6 5 5 4 4 3 3 3 3 3 3 3 2 2 2 2 2 3 2 2 2 2 2 1 1 1 1 0 0 1 1 1 1 1 1 1 1 1 1 3 8 9 9 9
4 4 5 4 4 3 3 2 3 3 2 2 2 2 2 2 2 2 2 2 1 1 1 1 1 1 1 0 1 1 1 5 1 1 1 1 1 1 1 1 1 1 8 8
4 3 4 4 3 4 3 3 3 4 3 3 2 2 2 3 2 2 2 1 1 1 1 1 1 1 0 0 1 1 1 1 1 1 1 1 1 1 1 1 2 2 1 5
4 4 4 4 4 4 3 3 3 3 3 3 3 3 2 2 2 2 2 2 2 2 2 1 1 1 0 0 1 1 1 5 4 1 1 1 1 1 1 1 1 1 1 1
6 6 4 5 4 4 4 3 3 3 3 3 3 2 2 2 2 2 2 1 1 1 1 1 1 1 0 0 1 1 1 1 5 1 2 1 1 1 1 1 1 1 1 1
4 4 3 4 4 4 4 3 3 3 3 3 2 2 3 3 3 2 2 2 2 2 1 1 1 0 0 0 0 1 1 1 1 2 1 1 1 1 1 1 1 1 1 3
4 4 4 4 3 3 3 3 3 2 2 2 3 3 3 3 2 2 2 2 2 3 2 1 7 4 1 2 2 1 1 1 1 1 1 4 2 1 1 1 1 1 2 2
4 3 3 3 3 3 3 3 2 3 2 2 3 3 3 3 2 2 2 3 2 2 1 1 1 1 1 2 8 1 1 1 1 1 2 1 1 2 1 4 1 2 2 2
4 4 4 3 4 3 3 3 3 4 3 2 3 3 3 2 2 2 3 3 2 2 2 5 1 1 1 3 4 1 1 1 1 1 1 1 2 1 1 2 3 3 3 4
4 4 4 4 4 4 3 3 3 3 3 3 3 3 3 3 2 2 2 2 1 13 2 1 1 9 3 11 1 1 2 1 1 1 2 2 2 3 3 3 3 4 5 7
5 4 4 4 4 4 4 4 3 3 3 2 3 2 2 2 2 2 3 2 1 7 1 2 12 13 13 1 1 1 1 1 2 2 2 3 3 3 4 5 5 7 9 9
6 5 5 5 4 4 5 4 4 3 2 2 2 2 2 2 2 1 1 9 11 7 3 4 7 12 10 1 1 1 1 2 2 3 3 7 4 5 5 7 8 8 9 10
5 5 5 5 5 5 4 4 4 3 2 2 2 1 1 1 2 2 1 2 10 5 2 13 13 11 1 1 1 1 2 2 2 3 3 4 5 6 8 8 7 8 8 8
4 5 5 5 5 5 4 4 4 3 2 2 2 1 1 1 2 2 2 4 1 6 1 1 1 1 2 2 2 2 2 4 4 3 4 5 6 6 6 7 9 8 8 8
4 6 4 4 4 4 4 3 3 3 3 2 2 2 1 1 3 3 6 1 2 2 3 3 3 6 4 3 4 4 3 3 6 4 3 4 5 6 6 7 7 7 8 8

GFSNGP_con_lsi_009.txt.gz
Lid_Strength_Index
8 7 7 8 8 8 8 8 10 9 8 7 5 5 4 4 4 4 4 3 3 3 2 2 2 1 1 1 1 1 1 1 0 -0 -0 -0 -0 -0 -1 -1 -0 -0 0 0
9 7 7 8 8 7 8 7 8 8 8 5 4 4 4 4 4 4 4 3 3 3 2 2 2 1 1 1 1 0 1 1 0 0 0 -0 -0 -0 -0 -0 -0 -0 -0 0
11 8 8 10 8 8 7 7 7 9 7 5 5 5 4 4 4 4 4 3 3 3 2 2 2 1 1 1 0 1 1 1 0 0 0 0 -0 -0 0 -0 -1 -0 -0 -0
11 9 14 8 5 6 7 6 6 6 5 5 4 4 3 3 4 4 3 3 3 2 2 1 1 1 1 1 1 1 1 1 0 0 1 0 0 0 0 -0 -0 -0 -0 -0
12 12 9 8 7 7 7 8 5 6 5 5 4 4 4 3 3 3 3 2 2 2 1 1 1 1 1 1 1 1 1 1 1 1 1 0 1 0 0 0 0 -0 -0 -0
10 13 14 8 6 4 5 9 5 5 5 5 4 7 5 3 2 2 2 2 2 1 1 1 1 1 1 1 1 1 1 1 0 0 0 1 0 0 0 0 0 0 0 -0
11 12 9 6 5 4 10 8 5 4 4 4 5 4 3 2 2 2 2 2 1 1 2 2 1 1 1 1 2 1 0 0 0 -0 0 0 0 0 0 0 0 0 0 -0
10 11 12 5 5 8 5 4 4 4 4 4 3 3 3 3 2 2 2 2 2 2 2 1 1 1 1 2 1 0 0 0 0 0 0 0 0 0 0 0 1 0 0 0
8 9 5 4 4 4 3 4 4 4 3 3 3 3 3 3 2 2 2 2 2 2 2 2 1 1 2 1 1 1 1 1 0 0 0 0 0 1 1 1 1 1 1 1
8 7 6 5 4 3 3 3 3 3 3 3 3 3 3 3 3 2 2 2 2 2 2 2 1 1 1 1 1 1 1 1 1 1 1 0 0 1 1 1 1 1 1 1
7 6 5 4 4 4 3 3 3 3 3 3 3 3 3 3 3 2 2 2 2 2 2 2 1 1 1 1 1 1 1 1 1 1 1 1 1 1 1 0 1 1 1 1
9 5 5 5 3 3 4 4 3 3 3 2 2 3 2 2 2 2 2 2 2 2 2 2 1 1 1 1 1 1 1 1 1 1 1 1 1 1 6 6 6 8 8 4
6 4 5 4 3 3 3 3 3 3 3 3 2 2 2 2 2 3 2 2 2 2 2 1 1 1 1 1 1 1 1 1 1 2 1 1 1 1 2 3 8 8 9 8
3 4 5 4 4 3 3 2 3 2 2 2 2 2 2 2 2 2 2 2 1 1 1 1 1 1 1 1 1 1 1 6 1 1 1 1 1 1 1 1 2 1 7 5
4 3 4 3 3 3 3 3 3 3 3 3 2 2 2 2 2 2 2 1 1 1 1 1 2 1 1 1 1 1 1 1 1 1 1 1 1 1 1 1 1 1 1 6
4 3 3 4 3 3 3 3 3 3 3 3 3 2 2 2 2 2 1 1 2 2 2 1 1 1 1 1 1 1 1 4 3 1 1 1 1 1 1 1 1 2 2 2
5 5 4 4 4 4 3 3 3 3 3 3 2 2 2 2 2 2 2 1 1 1 1 1 1 1 1 0 1 1 1 1 5 1 1 1 1 1 1 1 2 2 1 2
3 3 3 3 3 3 3 3 3 2 3 2 2 2 2 2 3 2 2 1 2 1 1 1 1 1 1 0 1 1 1 1 1 1 1 1 1 1 1 2 1 2 1 4
3 3 3 3 3 3 3 3 2 2 2 2 2 2 2 2 2 2 2 2 2 2 2 1 8 3 1 2 2 1 1 1 1 1 1 3 1 1 1 2 2 2 2 2
3 3 3 3 2 3 3 3 2 2 2 2 2 2 3 2 2 2 2 2 2 2 1 1 1 1 1 1 7 1 1 1 1 1 2 2 2 2 2 6 2 1 1 1
4 3 3 3 3 2 2 2 2 3 2 2 2 3 3 2 2 2 3 3 2 1 1 6 1 1 1 2 3 1 1 1 1 1 2 2 2 1 2 1 1 1 2 2
3 4 3 3 3 3 3 2 3 3 3 3 2 2 2 3 2 2 2 2 1 13 2 0 0 9 3 10 1 1 1 1 1 1 1 1 2 2 1 1 2 2 2 3
5 4 4 4 4 4 3 3 3 2 3 3 3 3 2 2 2 3 4 1 1 6 1 1 10 13 13 1 1 1 0 1 1 1 1 1 1 2 1 1 2 3 4 4
5 4 4 3 3 3 4 3 3 2 2 2 3 3 2 2 2 1 1 8 10 7 2 4 7 13 14 0 0 1 1 1 1 1 1 7 2 2 2 3 3 4 6 8
5 4 4 4 3 4 3 3 3 3 3 3 3 2 1 1 2 2 1 1 10 5 1 11 11 11 0 1 1 1 1 1 1 1 1 1 2 4 4 5 7 7 8 8
5 5 4 4 3 3 3 3 4 3 3 3 3 2 1 1 1 1 1 3 1 5 1 1 1 0 0 1 1 1 1 1 2 2 3 3 3 5 5 5 7 8 8 9
5 6 4 4 4 4 3 4 4 5 4 3 3 2 1 1 2 2 5 1 1 1 1 1 1 3 1 1 1 1 1 1 4 2 3 3 4 5 6 7 7 8 9 9

GFSNGP_con_lsi_015.txt.gz
Lid_Strength_Index
10 10 10 9 9 9 10 11 12 11 11 9 8 8 7 6 6 6 6 5 5 5 6 5 4 4 3 3 4 3 2 3 3 2 2 2 2 2 1 1 1 1 1 1
11 9 10 10 9 9 9 9 10 10 10 8 6 7 7 6 6 6 6 5 4 4 5 5 3 4 3 3 4 3 2 2 2 2 2 2 2 3 2 2 2 2 3 4
13 10 11 13 10 9 9 9 9 11 10 8 8 7 7 6 6 6 6 5 4 4 5 4 3 3 3 3 4 4 2 2 2 2 2 2 2 2 2 2 3 3 3 4
13 11 17 11 8 8 9 8 8 8 8 7 7 7 6 5 5 5 5 5 4 4 5 4 3 3 3 3 4 4 3 2 2 2 2 2 2 2 3 2 2 3 3 4
15 14 12 10 8 9 10 10 8 9 7 6 6 7 7 5 4 5 5 4 4 3 4 4 3 3 3 3 4 4 3 3 2 2 2 3 2 2 3 3 2 2 3 4
14 16 16 11 8 7 8 12 7 7 8 8 7 9 9 6 4 4 4 4 3 3 4 4 4 2 3 3 4 5 3 2 2 2 2 3 2 2 2 2 2 1 2 3
15 16 12 8 7 7 13 12 7 7 7 7 8 8 6 5 4 4 3 3 3 3 4 4 3 3 3 3 4 3 2 2 3 2 2 2 2 2 2 2 3 3 2 2
13 16 16 7 7 11 9 8 6 6 6 7 6 5 5 5 4 4 4 3 3 3 4 3 3 3 3 3 3 3 2 2 3 2 1 1 2 2 2 3 3 3 3 3
13 12 8 7 8 6 6 7 6 6 6 5 6 5 5 5 4 4 4 3 3 3 4 3 3 3 3 3 2 2 3 3 3 2 2 1 2 3 3 3 4 4 3 4
12 10 8 7 6 6 5 6 5 5 5 5 6 5 5 5 4 4 4 4 3 3 4 4 3 3 2 2 2 2 3 3 2 3 2 2 2 2 2 3 4 4 4 4
11 9 8 8 7 6 6 5 5 5 4 5 5 5 5 5 4 4 4 3 3 3 3 4 3 3 2 2 2 3 3 2 3 3 2 2 2 2 2 3 3 4 4 4
13 9 9 9 9 5 6 6 6 6 5 4 4 4 4 5 4 4 4 3 3 3 3 3 3 3 2 2 2 3 3 3 3 3 2 2 3 3 9 8 8 7 7 4
11 8 9 8 8 6 6 5 5 5 5 5 4 4 4 4 4 4 4 3 3 3 3 3 3 3 3 2 2 2 3 2 2 3 3 2 2 3 4 8 10 10 8 8
8 8 9 8 9 8 5 5 5 5 4 5 4 4 4 4 4 4 4 3 3 3 3 3 2 3 2 3 3 3 3 7 3 3 3 2 2 2 3 5 6 6 8 9
7 7 8 8 8 8 5 5 5 5 5 5 4 4 4 4 4 4 4 3 3 3 3 2 2 2 2 2 3 3 2 3 3 3 3 3 2 2 3 3 4 4 7 9
6 8 8 8 8 8 8 6 6 5 5 4 4 4 3 4 4 4 3 4 3 4 3 3 3 2 1 2 3 3 3 6 5 3 3 4 3 3 3 4 4 4 5 7
8 9 8 8 8 7 7 7 5 5 5 4 5 4 4 4 4 4 4 4 4 3 3 3 3 2 2 2 2 3 3 4 7 4 4 4 4 4 4 4 5 5 4 7
6 7 7 8 7 8 6 6 6 6 6 4 3 3 4 4 5 5 4 4 3 3 3 2 2 2 2 2 2 2 2 3 4 3 3 4 4 4 4 4 5 5 4 6
6 7 7 7 6 6 6 6 6 5 5 5 4 4 4 3 3 3 3 3 4 4 4 3 6 4 2 7 3 2 2 3 4 4 4 7 6 4 4 4 4 5 5 6
6 6 5 5 5 6 6 6 6 6 5 4 3 4 4 4 3 3 3 4 4 3 3 3 3 3 2 4 8 4 4 3 3 4 4 4 4 4 4 8 5 4 5 6
5 5 5 5 5 5 6 6 6 6 5 4 4 4 5 4 3 3 4 5 4 5 5 6 3 3 3 6 5 4 4 4 3 3 4 4 4 4 4 4 4 5 6 7
5 5 4 4 5 5 5 5 5 5 5 4 4 4 4 4 4 4 4 5 6 14 5 5 6 13 9 13 4 3 4 4 3 3 3 4 4 5 4 4 5 4 5 5
5 5 4 4 4 4 4 4 3 3 4 4 4 4 5 5 3 5 6 6 5 10 5 7 14 15 15 6 5 4 4 4 4 4 4 4 4 4 4 4 4 4 4 5
5 5 5 4 4 4 5 4 4 3 3 3 3 4 4 4 4 4 5 9 11 8 6 8 9 14 15 4 3 3 3 4 3 4 4 8 4 4 4 4 4 4 5 7
4 5 4 5 5 5 4 4 4 4 4 4 4 4 3 3 3 3 3 3 10 5 3 12 13 11 3 3 3 4 4 5 4 4 4 5 5 6 5 5 5 6 6 8
5 5 4 4 5 4 4 4 4 4 4 4 4 4 3 3 3 3 3 5 3 7 3 4 6 4 3 3 3 4 4 4 4 4 5 5 5 7 8 8 8 8 9 9
5 6 4 4 4 4 5 5 5 5 4 4 4 3 2 3 4 4 7 3 3 3 4 5 5 7 5 5 6 6 5 5 8 4 5 5 7 7 8 8 9 9 9 10

GFSNGP_con_lsi_021.txt.gz
Lid_Strength_Index
12 11 12 11 12 12 12 12 13 12 12 11 9 8 8 7 8 7 7 6 6 6 6 6 5 4 4 4 4 4 3 3 4 3 4 3 2 2 2 2 2 1 1 1
14 11 11 13 11 11 11 11 11 11 12 9 8 7 8 7 7 7 7 6 6 6 6 5 4 4 4 4 4 4 3 3 3 3 3 3 3 3 3 3 3 2 1 1
17 12 12 15 12 12 11 10 10 12 11 10 10 8 8 7 7 6 6 6 6 6 6 5 4 3 4 4 4 4 4 3 3 3 3 4 3 3 4 4 4 4 2 2
18 14 18 13 10 10 11 10 9 10 10 9 8 6 6 6 6 6 6 6 5 5 5 5 4 3 4 5 4 4 4 3 3 3 3 3 4 4 4 5 5 5 5 3
18 17 14 12 10 11 12 11 9 9 9 8 8 7 8 5 5 6 5 5 5 4 5 6 5 3 4 5 4 4 3 3 3 3 3 3 3 4 4 4 6 6 5 4
16 19 19 13 9 8 9 12 9 9 9 9 8 10 9 6 5 5 5 5 5 4 5 6 5 4 4 5 4 4 3 3 3 3 3 4 4 4 4 5 5 6 6 5
16 17 14 10 9 8 13 13 9 8 9 10 8 7 7 5 5 5 5 6 5 5 5 5 5 4 4 5 4 3 3 2 3 3 4 4 4 3 4 4 5 6 6 6
15 17 18 8 9 13 11 9 8 8 9 9 8 8 7 5 5 5 6 6 5 5 5 5 5 4 4 5 4 3 3 2 3 3 3 3 3 3 3 3 5 6 6 6
14 14 10 9 11 10 9 10 7 7 7 8 8 8 7 5 5 5 5 5 5 5 6 5 5 4 5 4 5 4 4 3 4 3 4 3 4 4 4 4 4 5 5 6
13 10 10 10 9 10 9 10 9 6 6 7 8 8 7 5 5 5 5 5 5 5 6 6 5 4 4 5 4 4 4 4 4 3 4 3 3 3 3 4 4 4 4 6
12 11 10 10 10 10 9 9 9 8 6 6 8 8 6 5 4 5 5 5 5 6 6 6 5 4 4 5 4 4 4 5 4 3 3 2 2 2 2 2 3 3 3 3
14 10 11 11 10 9 9 10 9 9 6 5 6 8 7 5 4 4 5 4 5 5 5 5 5 5 4 4 4 4 5 5 4 3 3 2 2 4 10 8 8 9 8 5
10 9 9 9 8 8 10 9 9 7 5 6 5 5 5 6 5 4 4 4 5 5 5 5 5 5 4 3 4 4 4 4 4 4 3 3 3 3 4 6 9 10 11 9
8 8 10 9 10 9 9 9 8 6 6 5 5 4 5 5 5 4 4 4 4 4 5 5 5 5 4 3 4 3 4 7 4 3 3 2 2 3 2 3 4 5 10 10
7 7 9 9 8 8 9 8 9 7 7 6 5 5 5 5 5 5 4 3 4 4 5 5 5 5 4 3 4 4 4 5 5 5 3 3 2 2 2 3 3 4 8 11
8 9 8 9 9 8 9 9 8 7 7 6 5 5 4 4 5 5 4 4 4 5 4 4 5 4 4 3 4 4 4 7 7 5 5 4 3 3 3 3 3 3 5 4
9 8 8 9 9 9 8 9 8 7 7 7 6 4 4 4 4 4 5 4 3 4 4 4 4 4 4 4 4 4 5 7 9 6 5 5 5 4 4 4 4 4 4 6
8 8 9 9 9 9 8 8 8 8 7 6 6 5 5 5 5 5 4 4 4 4 3 3 4 4 3 4 4 4 5 6 6 6 6 5 5 5 5 5 5 5 5 7
7 8 9 8 8 8 7 8 8 8 7 6 6 6 5 4 4 4 4 4 4 5 4 3 8 5 4 5 5 4 4 5 5 5 6 9 8 5 5 5 5 5 6 7
6 6 7 7 7 7 7 7 7 8 7 5 5 6 6 6 4 4 4 4 4 4 3 4 4 3 3 6 9 4 4 5 5 5 6 6 6 6 6 9 6 6 6 6
6 5 5 6 8 6 7 7 7 7 6 5 5 6 6 6 4 4 4 5 3 4 6 7 4 5 5 7 6 5 4 5 5 5 6 6 6 6 6 6 7 6 7 6
6 6 5 5 6 8 7 7 7 5 4 4 5 4 5 5 4 4 5 5 3 12 7 6 7 11 9 11 5 5 5 4 5 5 6 6 6 7 6 6 6 7 7 7
6 6 5 5 5 5 5 7 6 6 6 4 5 5 5 4 4 5 5 4 5 8 7 7 14 16 15 5 4 5 5 4 5 5 5 5 5 6 6 6 6 6 6 7
5 5 5 4 4 4 5 4 4 5 5 5 4 4 4 4 4 4 5 9 12 12 8 11 13 16 11 5 6 5 6 5 6 6 5 10 6 6 6 6 6 6 7 9
4 4 4 5 5 5 4 4 4 4 4 4 4 3 3 2 4 4 4 4 12 9 6 13 13 13 5 5 5 5 6 6 6 6 7 6 6 6 6 6 7 7 8 9
5 5 4 4 4 4 4 4 5 5 6 6 5 4 3 2 3 3 4 8 6 8 6 7 6 5 5 5 5 5 5 6 6 7 7 8 8 9 9 9 9 9 10 10
5 7 4 4 3 3 4 5 5 5 6 6 6 6 5 4 4 6 8 6 6 7 7 8 8 10 8 8 8 8 7 7 11 7 7 8 9 9 10 10 11 11 12 12

GFSNGP_con_lsi_024.txt.gz
Lid_Strength_Index
14 13 12 13 12 12 13 13 15 13 13 11 10 10 9 8 8 7 7 6 6 6 7 6 5 4 3 4 4 4 3 3 3 2 3 2 2 2 2 1 1 1 1 1
17 12 12 13 12 12 12 12 13 12 13 10 9 8 8 8 7 7 7 6 6 6 6 6 5 4 3 4 4 3 2 3 3 3 3 2 2 2 2 2 1 1 1 1
19 15 14 15 13 13 12 11 12 13 11 10 9 8 8 8 7 7 6 6 6 5 6 5 4 3 4 4 4 4 2 3 2 2 3 2 2 3 3 3 3 2 2 1
19 16 19 13 10 10 12 11 11 11 10 9 8 7 7 6 6 6 6 5 5 5 5 5 4 4 3 4 4 4 3 2 2 2 3 3 3 3 4 4 4 3 2 2
19 18 15 13 11 12 13 13 10 10 9 9 8 7 8 6 5 6 5 5 5 5 5 5 4 4 3 4 4 4 3 2 3 2 2 3 3 3 3 4 4 4 3 2
17 19 19 14 10 8 9 15 9 9 9 9 8 10 8 6 5 6 5 5 5 5 5 5 4 4 3 4 4 4 3 2 2 3 3 3 3 3 3 5 4 4 3 3
18 19 15 10 10 9 15 15 10 9 8 8 9 7 6 6 5 5 5 5 5 5 5 5 4 4 4 4 4 3 3 2 2 3 3 2 3 3 3 4 5 5 5 5
16 18 19 10 10 13 12 10 9 10 9 8 7 7 7 5 5 6 6 6 5 5 5 5 4 4 4 4 3 3 3 2 2 3 2 3 3 3 3 4 5 5 5 5
14 14 9 9 9 8 9 10 10 10 9 9 7 7 8 6 6 5 5 5 5 5 6 5 4 4 4 3 3 3 3 3 3 3 3 3 3 3 3 4 4 5 4 4
12 10 10 9 8 8 9 10 9 9 9 9 7 6 8 6 6 5 5 5 5 6 6 6 5 4 4 4 3 3 3 4 3 3 3 3 2 2 3 3 3 4 4 4
12 10 10 9 9 9 10 9 10 9 9 6 6 6 8 7 6 5 5 5 5 6 6 6 5 4 4 4 3 4 4 4 3 3 2 3 3 2 2 2 3 2 3 3
13 10 11 11 9 9 10 10 10 10 9 5 5 6 7 7 5 5 5 5 5 5 6 5 5 4 5 5 4 4 4 4 3 3 2 2 2 4 10 7 8 8 7 4
10 8 9 9 8 7 10 9 9 9 7 7 5 5 6 7 5 5 4 4 5 6 6 5 5 5 5 5 4 4 4 4 4 3 3 2 2 3 3 5 9 10 10 9
8 8 9 8 10 8 9 8 9 8 6 5 5 4 5 5 5 4 4 4 4 5 5 5 5 5 4 4 4 4 4 7 4 3 2 2 2 2 2 3 3 3 9 8
9 9 9 8 8 8 8 9 9 9 7 6 5 5 5 5 5 4 4 4 4 4 5 5 5 5 4 4 4 4 4 4 4 3 2 2 2 2 2 2 2 2 5 9
9 10 9 9 9 9 9 9 9 10 8 7 6 5 4 4 4 4 4 4 5 5 5 5 5 4 4 4 4 4 4 7 6 4 3 2 2 2 2 2 3 2 3 2
11 11 10 9 8 8 9 8 9 9 9 7 6 5 5 4 4 4 4 4 3 4 4 5 4 4 4 3 4 4 4 6 8 5 4 4 3 3 2 2 3 2 2 3
8 9 9 10 9 9 9 8 9 9 8 7 6 5 4 5 5 5 4 4 4 4 4 4 4 4 4 4 3 3 4 5 6 5 5 5 4 4 4 3 3 3 3 4
7 8 8 8 8 9 9 8 8 8 8 7 6 6 5 4 4 4 4 4 4 4 4 3 9 6 4 5 5 4 4 5 5 5 5 8 7 5 5 4 4 4 4 5
6 7 7 7 7 7 8 7 8 8 8 7 6 6 6 5 4 4 4 4 4 4 4 3 5 4 4 6 9 4 4 5 5 5 6 6 6 6 5 8 5 4 4 5
6 7 7 6 5 5 5 7 7 8 7 5 6 6 6 5 4 4 5 5 4 5 6 8 5 3 4 7 7 4 4 5 5 5 5 6 6 5 5 5 5 5 5 5
6 7 7 6 5 5 5 7 7 8 6 5 6 5 5 4 4 4 5 5 6 15 7 4 5 13 10 14 4 4 4 4 5 5 5 5 5 6 6 5 5 5 5 5
5 6 6 6 5 4 4 4 6 7 7 6 6 6 5 4 4 4 5 5 6 11 5 5 12 14 15 8 4 4 4 4 5 5 5 5 5 5 5 5 5 5 5 5
5 4 4 4 5 5 5 5 5 5 5 6 5 5 4 4 4 4 4 9 14 11 7 10 11 15 12 6 6 4 4 4 4 5 5 9 5 5 6 6 6 5 5 8
5 5 4 4 5 5 4 4 4 4 5 4 4 4 4 4 5 4 3 5 12 7 4 11 13 13 6 5 5 5 5 5 5 4 4 5 5 5 5 6 6 6 6 6
5 5 5 5 4 4 4 4 4 4 5 6 5 5 4 3 4 3 4 7 5 9 5 6 7 6 6 6 5 5 6 6 6 6 7 7 7 7 7 7 7 7 7 7
4 7 5 5 5 4 3 5 5 5 5 5 6 5 4 4 4 5 8 5 5 6 7 7 8 10 7 7 6 6 7 7 10 7 7 8 8 8 8 9 9 9 9 9

GFSNGP_con_lsi_027.txt.gz
Lid_Strength_Index
13 12 12 11 11 11 12 11 13 12 10 9 8 6 6 6 6 6 5 5 4 4 4 3 3 2 2 2 1 1 1 1 1 1 1 0 1 0 0 0 0 0 0 1
13 12 11 12 10 10 10 10 10 10 9 7 6 6 6 6 6 6 5 5 4 4 3 3 3 2 2 2 2 1 1 2 1 1 1 1 1 1 1 1 1 0 1 1
14 13 12 13 11 10 10 9 10 11 9 7 7 6 6 6 6 5 5 5 4 4 3 3 2 2 2 2 1 1 1 1 1 1 1 1 1 1 1 1 1 1 1 1
14 12 16 10 8 8 9 9 8 8 8 7 7 6 4 4 5 5 5 4 4 3 3 2 2 2 1 1 2 2 2 1 1 1 1 1 1 1 1 1 1 1 1 1
15 15 12 11 10 11 9 9 8 8 8 7 6 5 5 4 4 4 4 3 3 3 2 2 2 2 2 2 2 2 2 2 1 1 1 1 1 1 1 1 1 1 1 1
13 16 16 13 9 7 8 12 8 8 8 8 7 9 7 3 3 3 3 3 3 2 2 2 2 1 2 2 2 2 2 1 1 1 1 1 1 1 1 1 1 1 1 1
14 15 13 9 8 7 13 12 8 8 8 7 8 5 5 4 3 3 3 3 2 2 3 2 2 2 2 2 2 1 1 1 1 1 1 1 1 1 1 1 1 1 1 1
14 15 17 8 8 11 9 8 8 7 7 7 6 6 5 4 4 3 3 3 3 3 3 2 2 2 2 2 1 1 1 1 1 1 1 1 1 1 1 1 1 1 1 1
12 11 8 8 8 6 7 8 7 7 7 6 6 5 5 5 4 3 3 3 2 3 3 2 2 2 2 2 1 1 1 1 1 1 1 1 1 1 1 1 2 2 2 2
11 9 9 8 7 7 7 7 6 7 7 6 6 5 5 5 4 3 3 3 3 3 3 3 2 2 2 1 1 1 2 1 1 1 1 1 1 1 1 2 2 2 2 2
11 9 9 8 8 8 7 6 7 7 7 6 5 5 5 5 4 3 3 3 2 3 3 3 2 2 1 1 1 2 2 2 1 1 1 1 1 1 1 0 1 1 1 1
11 9 9 10 8 7 7 7 7 7 7 5 4 5 4 4 3 3 3 3 3 2 2 2 2 2 1 1 1 1 2 2 2 1 1 1 1 2 10 6 7 8 7 3
8 7 8 8 7 6 8 7 7 7 7 6 4 4 4 4 3 4 3 3 3 3 2 2 2 2 1 1 1 1 2 2 2 2 2 2 2 2 2 3 9 9 9 8
7 7 8 8 9 7 7 7 7 7 6 6 4 3 4 4 3 3 3 2 2 2 2 2 2 2 2 2 1 1 1 5 1 1 1 1 1 2 1 2 2 2 8 6
7 7 7 8 8 8 7 6 7 7 7 7 5 4 4 4 4 3 2 2 2 2 2 2 3 2 2 2 1 1 1 1 1 1 1 1 1 1 1 1 2 2 1 7
7 7 7 8 8 7 7 7 7 7 7 7 6 5 3 3 3 3 2 2 3 3 2 2 3 2 2 2 1 1 1 5 3 1 1 1 1 1 2 2 2 2 2 1
8 8 8 8 8 7 8 7 7 8 7 7 6 6 4 3 3 3 3 2 2 2 2 2 2 2 2 2 1 1 2 2 5 1 1 1 1 2 1 2 2 2 1 1
5 6 6 7 8 8 8 8 7 7 7 7 7 6 4 4 4 4 3 3 2 2 2 1 1 2 2 2 1 1 1 2 2 2 1 1 1 1 1 1 1 2 1 1
5 6 6 6 6 7 7 7 7 6 6 6 7 6 4 3 3 3 3 3 3 3 2 1 7 4 1 2 3 1 2 2 3 2 1 4 2 1 2 2 1 1 1 1
5 5 5 6 6 6 6 5 5 6 5 6 6 4 5 3 3 3 3 4 3 3 2 1 3 2 1 3 8 1 1 2 2 2 2 2 2 2 2 5 2 1 1 1
5 5 6 6 6 5 4 4 4 4 5 6 6 4 4 4 3 3 3 4 3 4 3 7 2 1 1 4 5 2 2 2 2 2 2 3 2 3 2 2 2 2 2 1
5 6 6 6 6 5 4 3 4 5 5 6 5 4 4 4 3 3 3 3 2 13 4 2 3 12 4 11 3 2 2 2 2 2 2 3 3 3 3 2 3 3 2 2
4 4 4 5 5 4 3 3 3 3 3 4 5 4 4 3 3 4 4 2 3 6 1 3 12 14 17 2 2 2 2 2 2 2 2 2 2 3 3 3 2 2 2 2
5 4 4 3 3 4 5 4 3 3 3 3 4 4 3 3 3 2 2 7 12 10 4 6 10 15 12 2 2 3 3 3 3 2 2 8 2 2 2 2 3 2 2 4
4 5 4 4 4 4 3 4 4 3 3 3 3 3 3 2 2 2 1 2 11 8 2 14 15 14 1 1 2 3 4 4 4 3 2 1 2 2 2 3 2 2 2 2
3 4 4 4 4 3 4 4 5 4 3 4 3 2 3 1 1 2 1 5 2 7 2 2 2 2 2 2 2 2 4 5 5 5 5 2 2 2 3 3 3 3 3 3
3 6 4 4 4 4 5 5 5 5 5 4 4 5 3 2 2 3 6 2 2 2 3 3 3 5 3 2 4 4 5 7 9 6 5 5 4 4 4 4 5 5 5 5

GFSNGP_con_lsi_033.txt.gz
Lid_Strength_Index
11 11 10 8 8 8 9 9 10 9 9 7 6 6 5 5 5 5 4 4 4 3 3 3 2 2 1 1 1 1 1 1 1 1 0 1 0 0 0 0 0 0 0 0
11 11 10 9 8 8 8 8 8 8 9 6 5 4 5 5 5 5 4 4 3 3 3 3 2 2 1 1 1 1 1 1 1 1 1 1 1 1 0 1 0 1 1 1
16 12 11 12 9 8 8 7 7 9 8 5 6 5 5 5 4 5 4 4 3 3 3 2 2 1 2 1 1 1 1 1 1 1 1 1 1 1 1 1 1 1 1 1
14 13 19 9 6 6 7 7 6 7 6 5 5 4 4 3 4 4 4 3 3 3 2 2 1 1 1 1 1 1 1 1 1 1 2 1 1 1 1 1 1 2 1 1
16 16 12 11 8 8 8 8 6 6 6 5 4 4 4 4 3 3 3 3 2 2 2 2 1 1 1 1 1 1 1 1 1 1 1 2 2 1 1 1 1 1 1 2
14 18 18 14 7 6 6 12 7 6 6 6 5 7 7 4 3 3 2 2 2 2 2 2 1 1 1 2 1 2 1 1 1 1 1 1 1 1 1 0 1 1 1 1
14 14 13 9 7 6 12 13 6 6 6 6 7 5 4 3 3 2 2 2 2 2 2 2 1 1 2 2 2 1 1 1 1 0 1 0 0 1 1 1 1 1 1 1
12 15 19 7 7 10 8 6 5 5 5 6 5 4 4 3 3 3 3 2 2 2 2 1 1 1 2 2 1 1 1 1 1 0 1 1 1 1 1 1 2 2 2 2
11 13 8 6 7 5 5 6 5 5 4 4 5 4 4 4 3 3 2 2 2 2 2 2 1 1 2 1 1 1 1 1 1 1 0 0 1 1 2 1 1 2 2 2
9 10 8 6 5 4 4 5 4 4 4 4 4 4 4 4 3 3 2 2 2 2 2 2 1 1 1 1 1 1 1 1 1 1 1 1 1 1 1 1 1 2 2 2
10 9 7 6 5 4 4 4 4 3 3 4 4 4 4 4 3 3 2 2 2 2 2 2 2 1 1 1 1 1 1 1 1 1 1 1 1 1 1 0 1 1 1 2
12 8 8 7 4 4 5 4 4 4 4 3 3 3 3 3 3 3 3 2 2 2 2 2 2 1 1 1 1 1 2 1 1 1 1 1 1 1 10 9 9 8 8 4
7 5 5 4 4 4 4 4 4 4 3 3 3 3 3 3 3 4 2 2 2 2 2 2 2 2 1 1 1 1 1 1 1 2 1 1 1 2 2 3 8 8 9 8
4 5 6 5 6 4 4 4 4 4 3 3 3 2 2 3 3 3 3 2 2 2 2 2 2 2 1 1 1 1 1 6 1 1 1 1 1 1 1 2 2 1 7 5
5 5 5 5 4 4 4 4 4 4 3 3 3 3 3 3 3 3 2 2 1 2 2 2 2 2 1 1 1 1 1 1 1 1 1 1 1 1 1 1 1 1 1 5
5 5 5 6 5 5 5 4 5 4 4 3 3 4 3 2 3 2 2 2 2 2 2 2 2 1 1 1 1 1 1 5 3 1 1 1 1 1 1 1 1 1 1 1
7 7 6 6 5 5 5 4 4 4 4 4 3 3 3 2 3 3 2 2 2 2 1 1 1 1 1 1 1 1 1 1 5 1 1 1 1 1 1 1 1 1 1 1
5 5 4 4 5 5 5 5 4 4 4 4 4 3 3 3 3 3 3 2 2 2 1 1 1 1 1 1 1 1 1 1 1 1 1 1 1 1 1 1 1 1 1 1
4 4 4 4 5 5 4 4 4 4 3 3 3 4 3 2 2 2 2 2 3 2 2 1 7 3 1 1 2 1 1 1 1 1 1 4 1 1 1 1 1 1 1 1
4 4 3 4 4 4 3 3 3 3 2 2 3 3 3 2 2 2 2 3 2 2 1 1 1 1 1 2 8 1 1 1 1 2 1 1 1 1 1 4 1 1 1 1
5 4 4 4 4 3 3 2 2 3 3 3 3 3 3 2 2 2 2 3 2 2 2 4 1 1 1 3 3 1 1 1 1 1 2 1 1 1 1 1 1 1 1 1
4 4 4 4 4 4 3 3 2 2 2 3 2 2 3 2 2 2 1 2 1 11 3 1 1 10 7 14 1 1 1 1 1 1 1 1 1 1 1 1 1 1 1 1
4 3 3 4 4 3 3 4 3 3 3 2 2 2 2 3 2 3 3 1 1 5 1 1 11 15 15 2 1 1 1 1 1 1 1 1 1 1 1 1 1 1 1 1
4 3 3 2 3 4 5 4 4 3 3 2 2 2 2 2 2 1 1 7 11 7 2 2 6 14 16 1 1 1 1 1 1 1 1 7 1 1 1 1 1 1 1 1
2 3 3 3 4 4 4 4 4 5 5 4 3 2 2 1 2 1 1 1 11 6 1 11 12 13 1 1 1 1 1 1 1 1 1 1 1 1 1 1 1 1 1 1
2 2 3 3 3 3 3 3 4 4 6 6 6 5 4 3 2 1 1 4 1 5 2 1 1 1 1 1 1 1 1 1 1 1 2 1 1 1 1 1 1 1 1 1
2 4 2 3 3 2 3 4 4 4 5 5 7 6 6 6 5 5 6 1 1 1 1 1 1 4 1 1 1 1 1 1 5 1 1 1 1 1 1 1 1 1 1 1